Location: Unspecified
(0.0000°N, 0.0000°E)
Time: 22:25:41
(UTC+02:00)

Delta 168 - Visible Passes

Search period start: 20 April 2018 00:00
Search period end: 30 April 2018 00:00
Orbit: 394 x 2059 km, 25.3° (Epoch: 19 April)

Date Brightness Start Highest point End Pass type
(mag) Time Alt. Az. Time Alt. Az. Time Alt. Az.
20 Apr 6.2 04:17:28 44° E 04:17:28 44° E 04:25:06 10° ENE visible
20 Apr 5.7 06:07:24 40° W 06:12:21 59° NNW 06:23:39 10° NE visible
21 Apr 6.4 04:06:27 38° ENE 04:06:27 38° ENE 04:13:09 10° ENE visible
21 Apr 5.7 05:56:22 44° WNW 06:00:15 55° NNW 06:11:48 10° NE visible
22 Apr 6.6 03:55:23 33° ENE 03:55:23 33° ENE 04:01:08 10° ENE visible
22 Apr 5.8 05:45:17 46° WNW 05:48:09 52° NNW 05:59:51 10° NE visible
23 Apr 6.8 03:44:15 28° ENE 03:44:15 28° ENE 03:49:04 10° ENE visible
23 Apr 5.8 05:34:09 46° NW 05:36:03 49° NNW 05:47:52 10° NE visible
23 Apr 6.7 07:27:08 10° WNW 07:36:37 24° NNW 07:45:03 10° NNE visible
24 Apr 7.0 03:33:04 24° ENE 03:33:04 24° ENE 03:36:56 10° ENE visible
24 Apr 5.9 05:22:58 45° NW 05:24:00 45° NNW 05:35:49 10° NE visible
24 Apr 6.8 07:15:25 10° WNW 07:24:46 24° NNW 07:33:19 10° NNE visible
25 Apr 7.1 03:21:51 20° ENE 03:21:51 20° ENE 03:24:45 10° ENE visible
25 Apr 6.0 05:11:45 42° NNW 05:11:58 42° NNW 05:23:43 10° NE visible
25 Apr 6.9 07:03:44 10° WNW 07:12:57 23° NNW 07:21:32 10° NNE visible
26 Apr 7.3 03:10:35 16° ENE 03:10:35 16° ENE 03:12:31 10° ENE visible
26 Apr 6.1 05:00:29 39° NNW 05:00:29 39° NNW 05:11:33 10° NE visible
26 Apr 6.9 06:52:06 10° WNW 07:01:07 22° NNW 07:09:43 10° NNE visible
27 Apr 7.4 02:59:18 13° ENE 02:59:18 13° ENE 03:00:14 10° ENE visible
27 Apr 6.3 04:49:12 36° N 04:49:12 36° N 04:59:20 10° NE visible
27 Apr 7.0 06:40:30 10° NW 06:49:19 22° NNW 06:57:54 10° NNE visible
28 Apr 6.4 04:37:53 32° N 04:37:53 32° N 04:47:05 10° NE visible
28 Apr 7.0 06:28:56 10° NW 06:37:31 21° N 06:46:02 10° NE visible
29 Apr 6.6 04:26:33 29° N 04:26:33 29° N 04:34:46 10° NE visible
29 Apr 7.1 06:17:23 10° NW 06:25:43 20° N 06:34:09 10° NE visible
